FW6525 Weather Reports


Display with metric or nautical units.
time (UTC)temp
F
wind
direction
speed
MPH
gust
MPH
rain 1hr
in
rain 24hr
in
rain mn
in
humidity
%
barometer
mb
20260508023108 49 341 2.0 6.0 0.06 0.72 0.42 99 1011.4
20260508022108 49 354 3.0 4.0 0.17 0.72 0.42 99 1011.2
20260508021609 50 340 2.0 4.0 0.19 0.72 0.42 99 1011.2
20260508020609 50 346 2.0 4.0 0.19 0.72 0.42 99 1011.3
20260508015608 50 350 4.0 6.0 0.19 0.72 0.42 99 1011.4
20260508015107 50 324 2.0 3.0 0.19 0.71 0.41 99 1011.3
20260508014607 50 340 2.0 3.0 0.19 0.71 0.41 99 1011.3
20260508014108 50 314 2.0 3.0 0.18 0.70 0.40 99 1011.3
20260508013606 50 296 2.0 3.0 0.17 0.69 0.39 99 1011.4
20260508013106 50 290 2.0 4.0 0.14 0.65 0.36 99 1011.9
20260508012606 50 345 2.0 6.0 0.13 0.64 0.34 99 1011.5
20260508011606 50 314 2.0 3.0 0.02 0.53 0.23 99 1011.5
20260508011105 50 294 2.0 3.0 0.02 0.53 0.23 99 1011.7
20260508010615 50 346 2.0 6.0 0.02 0.53 0.23 99 1011.7
20260508005607 50 302 4.0 6.0 0.02 0.53 0.23 99 1011.7
20260508004606 51 245 1.0 6.0 0.01 0.52 0.22 99 1011.3
20260508004107 50 273 2.0 6.0 0.01 0.52 0.22 99 1011.2
20260508003115 50 341 4.0 8.0 0.01 0.51 0.21 99 1011.0
20260508002605 51 339 2.0 7.0 0.03 0.51 0.21 99 1011.1
20260508002106 51 312 1.0 8.0 0.08 0.51 0.21 99 1011.3
20260508001605 51 336 5.0 8.0 0.17 0.51 0.21 99 1011.1
20260508001106 51 347 5.0 7.0 0.21 0.51 0.21 99 1011.0
20260508000605 51 29 4.0 7.0 0.21 0.51 0.21 99 1011.3
20260508000108 51 348 3.0 6.0 0.21 0.51 0.21 99 1011.2
20260507235605 51 0 2.0 4.0 0.21 0.51 0.21 99 1011.3
20260507235107 51 285 2.0 8.0 0.21 0.51 0.21 99 1011.2
20260507234605 51 276 1.0 8.0 0.21 0.51 0.21 99 1011.4
20260507234107 51 255 1.0 4.0 0.21 0.51 0.21 99 1011.2
20260507233605 51 265 1.0 4.0 0.21 0.51 0.21 99 1011.0
20260507233106 52 287 3.0 4.0 0.20 0.50 0.20 99 1011.2
20260507232605 51 294 2.0 4.0 0.17 0.47 0.18 99 1011.1
20260507232107 51 346 3.0 3.0 0.13 0.43 0.13 99 1011.3
20260507231605 52 304 2.0 7.0 0.02 0.32 0.03 99 1011.3
20260507231107 52 288 2.0 7.0 0.00 0.30 0.00 99 1011.2
20260507230606 52 282 1.0 6.0 0.00 0.30 0.00 99 1011.3
20260507230106 52 305 2.0 3.0 0.00 0.30 0.00 99 1011.3
20260507225605 52 327 1.0 6.0 0.00 0.30 0.00 99 1011.2
20260507225107 52 313 3.0 7.0 0.00 0.30 0.00 99 1011.0
20260507224605 52 348 5.0 7.0 0.00 0.30 0.00 99 1011.3
20260507224106 52 325 4.0 6.0 0.00 0.30 0.00 99 1011.4
20260507223605 52 343 3.0 6.0 0.00 0.30 0.00 99 1011.3
20260507223107 52 272 3.0 7.0 0.00 0.30 0.00 99 1011.0
20260507222107 52 336 6.0 7.0 0.00 0.30 0.00 99 1011.2
20260507221605 52 345 5.0 7.0 0.00 0.30 0.00 99 1011.2
20260507221106 53 281 3.0 6.0 0.00 0.30 0.00 99 1011.1
20260507220605 53 355 2.0 6.0 0.00 0.30 0.00 99 1011.2
20260507220106 53 26 4.0 6.0 0.00 0.30 0.00 99 1011.0
20260507215605 53 327 3.0 6.0 0.00 0.30 0.30 99 1010.9
20260507215106 53 0 2.0 6.0 0.00 0.30 0.30 99 1011.0
20260507214605 53 350 4.0 6.0 0.00 0.30 0.30 99 1010.8
20260507214107 53 314 3.0 7.0 0.00 0.30 0.30 99 1011.2
20260507213107 53 322 3.0 7.0 0.00 0.30 0.30 99 1010.6
20260507212605 53 326 4.0 7.0 0.00 0.30 0.30 99 1010.6
20260507212107 54 339 3.0 7.0 0.00 0.30 0.30 99 1010.7
20260507211606 54 340 4.0 7.0 0.00 0.30 0.30 99 1010.7
20260507211107 54 323 4.0 7.0 0.00 0.30 0.30 99 1010.8
20260507210603 54 139 2.0 6.0 0.00 0.30 0.30 99 1010.9
20260507210104 55 331 3.0 4.0 0.00 0.30 0.30 99 1011.0
20260507205602 55 358 2.0 4.0 0.00 0.30 0.30 99 1010.8
20260507205104 55 271 2.0 4.0 0.00 0.30 0.30 99 1010.9
20260507204603 55 259 0.0 4.0 0.01 0.30 0.30 99 1010.6
20260507204102 55 277 0.0 3.0 0.02 0.30 0.30 98 1010.5
20260507203100 55 277 1.0 2.0 0.04 0.30 0.30 98 1010.5
20260507202559 55 259 0.0 2.0 0.04 0.30 0.30 98 1010.4
20260507201548 55 298 1.0 3.0 0.04 0.30 0.30 98 1010.2
20260507200548 55 299 1.0 4.0 0.04 0.30 0.30 98 1010.2
20260507195535 55 313 4.0 7.0 0.04 0.30 0.30 98 1010.0
20260507195036 55 359 6.0 7.0 0.04 0.30 0.30 98 1010.1
20260507194535 55 336 3.0 4.0 0.03 0.29 0.29 97 1009.7
20260507194034 56 258 0.0 4.0 0.01 0.27 0.28 97 1010.0
20260507193533 55 276 1.0 4.0 0.00 0.26 0.26 97 1010.3
20260507193034 55 251 1.0 2.0 0.00 0.26 0.26 97 1010.8
20260507192524 55 246 0.0 3.0 0.00 0.26 0.26 97 1010.5
20260507191524 55 294 1.0 3.0 0.00 0.26 0.26 97 1010.0
20260507191021 55 274 0.0 4.0 0.00 0.26 0.26 96 1010.0
20260507190523 55 5 2.0 4.0 0.00 0.26 0.26 96 1009.5
20260507190021 55 254 0.0 6.0 0.00 0.26 0.26 96 1009.6
20260507185020 56 198 2.0 9.0 0.00 0.26 0.26 96 1009.3
20260507184524 56 125 4.0 9.0 0.00 0.26 0.26 96 1009.0
20260507184021 56 175 4.0 9.0 0.01 0.26 0.26 96 1009.1
20260507183526 56 150 3.0 7.0 0.01 0.26 0.26 96 1009.1
20260507183021 56 233 1.0 7.0 0.02 0.26 0.26 96 1009.0
20260507182021 56 200 1.0 3.0 0.18 0.26 0.26 95 1009.2
20260507181540 55 206 0.0 2.0 0.18 0.26 0.26 95 1009.3
20260507181012 56 234 1.0 2.0 0.18 0.26 0.26 95 1009.0
20260507180011 56 306 1.0 7.0 0.18 0.26 0.26 94 1008.9
20260507175512 56 298 2.0 7.0 0.18 0.26 0.26 94 1008.7
20260507175012 56 346 5.0 7.0 0.18 0.26 0.26 93 1009.0
20260507174012 56 77 0.0 6.0 0.17 0.25 0.25 92 1008.7
20260507173511 56 329 4.0 9.0 0.18 0.25 0.25 92 1008.6
20260507173011 56 270 1.0 9.0 0.17 0.24 0.24 92 1008.4
20260507172518 57 350 3.0 9.0 0.09 0.15 0.15 92 1008.6
20260507172011 58 353 4.0 9.0 0.02 0.08 0.08 93 1008.3
20260507171542 58 207 3.0 8.0 0.02 0.08 0.08 93 1007.6
20260507171010 58 96 5.0 8.0 0.02 0.08 0.08 93 1007.5
20260507170513 58 101 4.0 7.0 0.02 0.08 0.08 93 1007.9
20260507170010 59 120 5.0 8.0 0.02 0.08 0.08 92 1007.5
20260507165513 59 155 4.0 8.0 0.02 0.08 0.08 92 1007.7
20260507164511 60 30 3.0 7.0 0.02 0.08 0.08 90 1007.5
20260507163012 60 337 5.0 8.0 0.01 0.07 0.07 86 1007.4
20260507162011 61 341 4.0 7.0 0.00 0.06 0.06 83 1007.2
20260507161512 63 358 5.0 7.0 0.00 0.06 0.06 80 1007.1
20260507161012 64 325 4.0 4.0 0.00 0.06 0.06 75 1006.9
20260507160511 65 317 3.0 4.0 0.00 0.06 0.06 74 1006.9
20260507160011 65 318 2.0 4.0 0.00 0.06 0.06 72 1006.9
20260507155009 66 348 1.0 4.0 0.00 0.06 0.06 69 1007.1
20260507154510 66 273 0.0 4.0 0.00 0.06 0.06 66 1006.7
20260507154010 67 260 0.0 2.0 0.00 0.06 0.06 64 1006.6
20260507153512 67 259 0.0 2.0 0.00 0.06 0.06 63 1006.5
20260507153009 67 263 0.0 4.0 0.00 0.06 0.06 63 1006.8
20260507152509 67 334 4.0 4.0 0.00 0.06 0.06 61 1007.1
20260507152009 67 296 3.0 3.0 0.00 0.06 0.06 62 1006.8
20260507151509 67 274 2.0 2.0 0.00 0.06 0.06 62 1006.9
20260507151010 67 337 1.0 4.0 0.00 0.06 0.06 61 1006.9
20260507150509 68 288 1.0 4.0 0.00 0.06 0.06 61 1006.8
20260507150009 68 315 2.0 8.0 0.00 0.06 0.06 61 1006.6
20260507145508 68 353 2.0 8.0 0.00 0.06 0.06 62 1006.4
20260507144510 68 265 2.0 7.0 0.00 0.06 0.06 61 1006.9
20260507144009 69 344 2.0 8.0 0.00 0.06 0.06 62 1006.8
20260507143509 68 267 4.0 8.0 0.00 0.06 0.06 62 1006.7
20260507143009 69 284 2.0 10.0 0.00 0.06 0.06 63 1006.5
20260507142510 69 252 6.0 9.0 0.00 0.06 0.06 58 1006.6
20260507142009 70 15 0.0 8.0 0.00 0.06 0.06 56 1006.6
20260507141509 70 260 6.0 9.0 0.00 0.06 0.06 58 1006.4
20260507141010 71 257 4.0 9.0 0.00 0.06 0.06 56 1006.6
20260507140509 71 283 1.0 8.0 0.00 0.06 0.06 57 1006.5
20260507140009 72 317 2.0 7.0 0.00 0.06 0.06 55 1006.4
20260507135009 70 244 2.0 8.0 0.00 0.06 0.06 55 1006.7
20260507134509 70 260 5.0 11.0 0.00 0.06 0.06 55 1006.9
20260507134010 70 246 3.0 11.0 0.00 0.06 0.06 55 1006.7
20260507133510 71 306 0.0 6.0 0.00 0.06 0.06 53 1006.8
20260507133009 70 239 0.0 7.0 0.00 0.06 0.06 54 1006.9
20260507132509 71 303 1.0 7.0 0.00 0.06 0.06 50 1007.2
20260507132009 71 255 1.0 8.0 0.00 0.06 0.06 50 1006.7
20260507131510 71 256 1.0 8.0 0.00 0.06 0.06 54 1006.9
20260507131009 70 309 6.0 8.0 0.00 0.06 0.06 55 1006.9
20260507130509 70 341 2.0 8.0 0.00 0.06 0.06 66 1007.1
20260507130009 69 315 4.0 8.0 0.00 0.06 0.06 64 1006.8
20260507125008 68 14 2.0 13.0 0.00 0.06 0.06 69 1007.2
20260507124510 68 258 2.0 6.0 0.00 0.06 0.06 65 1007.4
20260507124008 68 105 0.0 3.0 0.00 0.06 0.06 70 1006.8
20260507123510 68 311 2.0 3.0 0.00 0.06 0.06 69 1007.1
20260507123008 68 279 0.0 4.0 0.00 0.06 0.06 71 1007.1
20260507122511 68 279 1.0 4.0 0.00 0.06 0.06 69 1007.2
20260507122008 68 273 0.0 4.0 0.00 0.06 0.06 74 1007.2
20260507121511 67 169 3.0 4.0 0.00 0.06 0.06 73 1007.2
20260507121008 68 171 2.0 4.0 0.00 0.06 0.06 72 1006.9
20260507120510 67 198 1.0 4.0 0.00 0.06 0.06 73 1007.1
20260507120008 67 217 1.0 2.0 0.05 0.06 0.06 74 1007.2
20260507115008 68 221 1.0 2.0 0.06 0.06 0.06 72 1007.4
20260507114510 67 144 2.0 2.0 0.06 0.06 0.06 71 1007.3
20260507114008 66 228 0.0 2.0 0.06 0.06 0.06 72 1007.4
20260507113008 63 151 2.0 2.0 0.06 0.06 0.06 79 1007.2
20260507112510 63 241 0.0 2.0 0.06 0.06 0.06 88 1007.3
20260507112009 63 241 0.0 2.0 0.06 0.06 0.06 88 1007.5
20260507111510 63 242 0.0 2.0 0.06 0.06 0.06 88 1007.4
20260507110510 62 201 2.0 3.0 0.06 0.06 0.06 84 1007.4
20260507105511 66 279 1.0 3.0 0.00 0.00 0.00 70 1007.3
20260507105008 66 303 1.0 3.0 0.00 0.00 0.00 68 1006.9
20260507104511 66 275 2.0 4.0 0.00 0.00 0.00 69 1007.1
20260507103511 67 238 1.0 3.0 0.00 0.00 0.00 68 1006.9
20260507103009 67 271 1.0 6.0 0.00 0.00 0.00 68 1006.9
20260507102512 67 294 2.0 6.0 0.00 0.00 0.00 68 1007.1
20260507102010 67 259 2.0 3.0 0.00 0.00 0.00 68 1006.8
20260507101511 66 222 1.0 3.0 0.00 0.00 0.00 69 1006.9
20260507101010 67 237 0.0 3.0 0.00 0.00 0.00 69 1007.1
20260507100523 67 242 2.0 4.0 0.00 0.00 0.00 70 1007.2
20260507100010 66 266 1.0 6.0 0.00 0.00 0.00 71 1007.3
20260507095512 66 329 3.0 6.0 0.00 0.00 0.00 71 1006.9
20260507095010 66 276 1.0 4.0 0.00 0.00 0.00 72 1006.8
20260507094512 66 244 0.0 4.0 0.00 0.00 0.00 72 1006.8
20260507094009 66 300 3.0 3.0 0.00 0.00 0.00 72 1006.9
20260507093512 65 234 1.0 4.0 0.00 0.00 0.00 73 1007.2
20260507093010 65 279 0.0 4.0 0.00 0.00 0.00 73 1006.8
20260507092512 65 301 2.0 4.0 0.00 0.00 0.00 73 1006.8
20260507092010 65 305 2.0 4.0 0.00 0.00 0.00 73 1007.2
20260507091512 65 248 2.0 6.0 0.00 0.00 0.00 74 1006.7
20260507091010 65 341 2.0 6.0 0.00 0.00 0.00 74 1006.8
20260507090511 65 266 2.0 6.0 0.00 0.00 0.00 73 1006.7
20260507090008 65 24 2.0 6.0 0.00 0.00 0.00 72 1006.5
20260507085511 65 331 2.0 7.0 0.00 0.00 0.00 73 1006.6
20260507085008 64 325 1.0 7.0 0.00 0.00 0.00 75 1006.4
20260507083511 63 312 3.0 9.0 0.00 0.00 0.00 77 1006.5
20260507083008 63 269 2.0 9.0 0.00 0.00 0.00 78 1006.6
20260507082511 63 299 4.0 7.0 0.00 0.00 0.00 78 1006.3
20260507082008 62 301 4.0 9.0 0.00 0.00 0.00 78 1006.5
20260507081510 62 335 3.0 9.0 0.00 0.00 0.00 80 1006.5
20260507081008 62 342 5.0 8.0 0.00 0.00 0.00 79 1006.3
20260507080511 62 307 2.0 10.0 0.00 0.00 0.00 79 1006.3
20260507080007 62 267 1.0 10.0 0.00 0.00 0.00 80 1006.4
20260507075510 62 260 2.0 11.0 0.00 0.00 0.00 80 1006.3
20260507074957 62 332 3.0 11.0 0.00 0.00 0.00 80 1006.3
20260507074456 62 268 3.0 13.0 0.00 0.00 0.00 79 1005.9
20260507073957 62 354 4.0 13.0 0.00 0.00 0.00 80 1005.9
20260507073456 62 18 2.0 9.0 0.00 0.00 0.00 80 1006.1
20260507072457 63 258 7.0 9.0 0.00 0.00 0.00 79 1005.8
20260507071957 62 259 2.0 9.0 0.00 0.00 0.00 80 1005.7
20260507071455 62 351 3.0 9.0 0.00 0.00 0.00 79 1005.6
20260507070957 62 268 4.0 9.0 0.00 0.00 0.00 79 1005.7
20260507070457 61 265 2.0 9.0 0.00 0.00 0.00 80 1005.5
20260507065957 61 228 5.0 9.0 0.00 0.00 0.00 80 1005.6
20260507065455 61 287 5.0 10.0 0.00 0.00 0.00 81 1005.5
20260507064957 61 320 2.0 10.0 0.00 0.00 0.00 81 1005.4
20260507064456 62 313 4.0 8.0 0.00 0.00 0.00 81 1005.6
20260507063957 62 289 5.0 7.0 0.00 0.00 0.00 81 1005.4
20260507063458 62 287 3.0 6.0 0.00 0.00 0.00 81 1005.2
20260507062457 60 187 1.0 7.0 0.00 0.00 0.00 82 1005.2
20260507061958 60 276 1.0 6.0 0.00 0.00 0.00 83 1005.1
20260507061457 60 257 1.0 6.0 0.00 0.00 0.00 83 1004.9
20260507060958 60 349 0.0 3.0 0.00 0.00 0.00 84 1005.2
20260507060457 60 211 1.0 2.0 0.00 0.00 0.00 84 1005.2
20260507055958 60 271 0.0 2.0 0.00 0.00 0.00 84 1005.2
20260507055457 59 284 2.0 2.0 0.00 0.00 0.00 85 1005.2
20260507054957 59 273 2.0 2.0 0.00 0.00 0.00 85 1004.9
20260507054456 59 217 0.0 2.0 0.00 0.00 0.00 86 1004.8
20260507053957 59 278 1.0 2.0 0.00 0.00 0.00 86 1004.9
20260507053456 58 251 0.0 2.0 0.00 0.00 0.00 86 1004.9
20260507052958 58 281 1.0 2.0 0.00 0.00 0.00 86 1004.8
20260507051957 58 278 0.0 2.0 0.00 0.00 0.00 86 1004.8
20260507051456 58 255 0.0 1.0 0.00 0.00 0.00 86 1004.7
20260507050958 58 247 0.0 1.0 0.00 0.00 0.00 86 1004.8
20260507045959 58 260 0.0 2.0 0.00 0.00 0.00 86 1004.5
20260507045457 58 274 0.0 2.0 0.00 0.00 0.00 86 1004.5
20260507044959 58 247 0.0 2.0 0.00 0.00 0.00 86 1004.4
20260507044458 58 256 1.0 2.0 0.00 0.00 0.00 86 1004.6
20260507043958 58 247 0.0 0.0 0.00 0.00 0.00 86 1004.4
20260507042958 58 260 0.0 2.0 0.00 0.00 0.00 86 1004.4
20260507042457 58 258 0.0 2.0 0.00 0.00 0.00 86 1004.3
20260507040957 58 283 1.0 3.0 0.00 0.00 0.00 85 1003.9
20260507040456 58 284 1.0 4.0 0.00 0.00 0.00 84 1004.1
20260507035958 58 294 3.0 4.0 0.00 0.00 0.00 84 1004.1
20260507035456 58 276 0.0 1.0 0.00 0.00 0.00 83 1003.6
20260507034957 58 256 0.0 1.0 0.00 0.00 0.00 83 1003.7
20260507034456 58 269 0.0 3.0 0.00 0.00 0.00 82 1003.8
20260507033958 58 248 1.0 3.0 0.00 0.00 0.00 82 1003.8
20260507033457 59 248 1.0 3.0 0.00 0.00 0.00 82 1003.6
20260507032456 59 285 1.0 2.0 0.00 0.00 0.00 81 1003.4
20260507031957 58 289 2.0 2.0 0.00 0.00 0.00 81 1003.7
20260507031456 58 261 0.0 1.0 0.00 0.00 0.00 81 1003.3
20260507030957 59 264 0.0 1.0 0.00 0.00 0.00 81 1003.3
20260507030456 59 276 0.0 1.0 0.00 0.00 0.00 81 1003.5
20260507025958 58 228 0.0 1.0 0.00 0.00 0.00 81 1003.1
20260507025456 58 233 0.0 1.0 0.00 0.00 0.00 81 1003.1
20260507024958 58 233 0.0 1.0 0.00 0.00 0.00 81 1003.2
20260507024456 58 259 0.0 0.0 0.00 0.00 0.00 82 1003.1
20260507023958 58 259 0.0 1.0 0.00 0.00 0.00 82 1003.1